Location: Poughquag
(41.6090°N, 73.6820°W)
Time: 07:58:44
(UTC-05:00)

Altair - Pass Details

Date: 28 November 2023
Orbit: 1501 x 1682 km, 47.2° (Epoch: 02 March)

Event Time Altitude Azimuth Distance (km) Brightness Sun altitude
Rises 15:05:57 0° 294° (WNW) 4,675 10.4 11.4°
Reaches altitude 10° 15:09:00 10° 295° (WNW) 3,677 9.9 11.0°
Maximum altitude 15:18:15 89° 206° (SSW) 1,505 7.7 9.7°
Drops below altitude 10° 15:27:28 10° 119° (ESE) 3,660 9.3 8.4°
Sets 15:30:29 0° 119° (ESE) 4,652 9.8 7.9°
